Regional Weather Roundup
Issued by NWS

Home | Current Version | Previous Version | Graphics & Text | Print | Product List | Glossary Off
Versions: 1 2 3 4 5 6 7 8 9 10 11 12 13 14 15 16 17 18 19 20 21 22 23 24 25 26 27 28

000
ASUS45 KCYS 180610
RWRWY

WYOMING REGIONAL WEATHER ROUNDUP
NATIONAL WEATHER SERVICE CHEYENNE WY
1200 AM MDT FRI APR 18 2014

NOTE:  "FAIR" INDICATES FEW OR NO CLOUDS BELOW 12,000 FEET
WITH NO SIGNIFICANT WEATHER AND/OR OBSTRUCTIONS TO VISIBILITY.

WYZ001-180700-
YELLOWSTONE NATIONAL PARK

CITY           SKY/WX    TMP DP  RH WIND       PRES   REMARKS
LK YELLOWSTONE   N/A     26  22  84 CALM      29.96F
6HR MIN TEMP:  26; 6HR MAX TEMP:  43;

W YELLOWSTONE  NOT AVBL

$$
WYZ002>013-054>058-071-098>099-180700-
NORTHERN WYOMING

CITY           SKY/WX    TMP DP  RH WIND       PRES   REMARKS
JACKSON        CLEAR     39  25  56 SE5       29.92F
CODY           PTCLDY    46  25  42 SW7       29.82F
GREYBULL       MOCLDY    49  31  49 CALM      29.81S
6HR MIN TEMP:  49; 6HR MAX TEMP:  63;

WORLAND        MOCLDY    44  32  62 S8        29.82S
6HR MIN TEMP:  43; 6HR MAX TEMP:  63;

SHERIDAN       CLOUDY    43  35  73 S3        29.80F
6HR MIN TEMP:  40; 6HR MAX TEMP:  60;

BUFFALO        CLOUDY    49  25  39 SE7       29.83F
6HR MIN TEMP:  45; 6HR MAX TEMP:  60;

GILLETTE       MOCLDY    43  35  73 S15       29.85F
6HR MIN TEMP:  43; 6HR MAX TEMP:  60;

HULETT         FAIR     N/A N/A N/A CALM      29.88
NEWCASTLE      FAIR      46  32  57 E16G22    29.91

$$
WYZ014>020-022>026-101>103-180700-
CENTRAL WYOMING

CITY           SKY/WX    TMP DP  RH WIND       PRES   REMARKS
BIG PINEY      PTCLDY    31  22  69 E3        30.00F
6HR MIN TEMP:  30; 6HR MAX TEMP:  57;

PINEDALE       CLEAR     30  27  86 NW3       30.01F
DUBOIS         FAIR      37  19  48 N14       29.92F WCI  29
LANDER         CLEAR     45  25  45 SW5       29.90R
6HR MIN TEMP:  44; 6HR MAX TEMP:  61;

RIVERTON       PTCLDY    44  19  36 W12       29.90R
6HR MIN TEMP:  43; 6HR MAX TEMP:  60;

CASPER         PTCLDY    43  28  55 W12       29.89S
6HR MIN TEMP:  41; 6HR MAX TEMP:  62;

DOUGLAS        CLEAR     41  34  76 SE8       29.90F
6HR MIN TEMP:  40; 6HR MAX TEMP:  56;


$$
WYZ021-027>030-104>119-180700-
SOUTHERN WYOMING

CITY           SKY/WX    TMP DP  RH WIND       PRES   REMARKS
EVANSTON       PTCLDY    48  20  32 S8        29.98F
6HR MIN TEMP:  47; 6HR MAX TEMP:  60;

KEMMERER       CLEAR     37  27  65 N6        30.00F WCI  33
FORT BRIDGER   FAIR      45  24  44 SE9       30.02F
ROCK SPRINGS   CLEAR     46  20  35 SW5       30.00F
6HR MIN TEMP:  44; 6HR MAX TEMP:  61;

DIXON          FAIR      35  26  68 CALM      30.08R
RAWLINS        CLEAR     47  19  33 W18       29.99F
6HR MIN TEMP:  45; 6HR MAX TEMP:  57;

SARATOGA       FAIR      37  21  52 E5        30.04S WCI  34
LARAMIE        PTCLDY    36  24  62 S9        30.03S WCI  29
6HR MIN TEMP:  32; 6HR MAX TEMP:  54;

CHEYENNE       CLEAR     42  30  62 S10       30.01R
6HR MIN TEMP:  40; 6HR MAX TEMP:  56;

TORRINGTON     CLEAR     41  35  79 E9        29.93S
6HR MIN TEMP:  40; 6HR MAX TEMP:  58;

PINE BLUFFS    FAIR      43  34  70 S16       30.00R

$$



USA.gov is the U.S. government's official web portal to all federal, state and local government web resources and services.